Weather in Nukunonu

Tokelau     11°04′00″S   171°05′02″W
temp.,
°C
wind,
m/s
gust,
m/s
humid.,
%
clouds,
%
prec.,
mm/h
press.,
hPa
HPBL,
m
10 may, mon
mon1001:00+28ese677511 0.7 1009944
04:00+28e567620 0.9 1008840
07:00+28e667645 1.2 1010878
10:00+29e777486 0.1 1011972
13:00+29e777498 0.4 1008972
16:00+29e667465 0.2 1007933
19:00+29e6673100 0.7 10081003
22:00+29e6674100 0.3 1010912
11 may, tue
tue1101:00+28e677575 1.2 1009871
04:00+28ese567454 1.2 1009765
07:00+28e77765 1.4 1010917
10:00+28e667463 0.3 1011908
13:00+29e6673100 0.3 1009982
16:00+29e6668100 0.0 1008990
19:00+29e6673100 0.1 1009939
22:00+28ese5575100 0.6 1011829
12 may, wed
wed1201:00+28ese5576100 1.1 1010749
04:00+28ese457692 0.4 1009785
07:00+28ese5575100 1.0 1011854
10:00+28e5672100 0.1 1011869
13:00+29e447111 0.1 1009909
16:00+29e447223 0.3 1008893
19:00+29ese44686 0.6 1010949
22:00+29ese55715 0.1 1011902
13 may, thu
thu1301:00+29ese55695 0.1 10091052
04:00+28ese557152 0.0 1008981
07:00+29ese5568100 0.0 1010946
10:00+29e557312 0.1 1011882
13:00+29e457254 0.1 1008904
16:00+29ese44725 0.1 1007735
19:00+29ese457398 0.3 1009656
22:00+29ese557426 0.6 1010664
14 may, fri
fri1401:00+28ese66757 1.5 1009830
04:00+28ese66755 0.6 1008831
07:00+28e67745 0.6 1010921
10:00+29e777311 0.4 10111030
13:00+29e77734 0.4 10091027
16:00+29e66735 0.1 1008980
19:00+29e66725 0.1 10091000
22:00+29e66635 0.0 10111001